Siloam Springs, AR

8:56 PM CST on February 09, 2016 (GMT -0600)
Smith

Weather History for KSLG - October, 2011

Change the Weather History Date:

Sunday, October 9, 2011

  Actual Average Record
Temperature  
Mean Temperature 71 °F -  
Max Temperature 78 °F 69 °F 82 °F (2010)
Min Temperature 64 °F 48 °F 24 °F (2000)
Cooling Degree Days 6    
Growing Degree Days 21 (Base 50)    
Moisture  
Dew Point 54 °F    
Average Humidity 56    
Maximum Humidity 68    
Minimum Humidity 42    
Precipitation  
Precipitation 0.00 in - - ()
Sea Level Pressure  
Sea Level Pressure 30.13 in    
Wind  
Wind Speed 10 mph (ESE)    
Max Wind Speed 18 mph    
Max Gust Speed 24 mph    
Visibility 10 miles    
Events      
Averages and records for this station are not official NWS values.
T = Trace of Precipitation, MM = Missing Value Source: NWS Daily Summary

Daily Weather History Graph

Daily Weather History Graph

Search for Another Location

Airport or City:

Trip Planner

Search our weather history database for the weather conditions in past years. The results will help you decide how hot, cold, wet, or windy it might be!

Date:

Astronomy

Oct. 09, 2011 Rise Set
Actual Time 7:19 AM CDT 6:50 PM CDT
Civil Twilight 6:53 AM CDT 7:16 PM CDT
Nautical Twilight 6:24 AM CDT 7:45 PM CDT
Astronomical Twilight 5:54 AM CDT 8:15 PM CDT
Moon 5:25 PM CDT (10/9) 5:07 AM CDT (10/9)
Length of Visible Light 12h 22m
Length of Day
11h 30m
Waxing Gibbous, 95% of the Moon is Illuminated
Oct 9
Waxing Gibbous
Oct 11
Full
Oct 19
Last Quarter
Oct 26
New
Nov 2
First Quarter

Hourly Weather History & Observations

Time (CDT) Temp. Dew Point Humidity Pressure Visibility Wind Dir Wind Speed Gust Speed Precip Events Conditions
12:15 AM 68.0 °F 53.6 °F 60% 30.14 in 10.0 mi East 8.1 mph - N/A   Clear
12:35 AM 66.2 °F 53.6 °F 64% 30.14 in 10.0 mi East 9.2 mph - N/A   Clear
12:55 AM 66.2 °F 53.6 °F 64% 30.14 in 10.0 mi East 6.9 mph - N/A   Clear
1:15 AM 66.2 °F 51.8 °F 60% 30.14 in 10.0 mi East 5.8 mph - N/A   Clear
1:35 AM 66.2 °F 51.8 °F 60% 30.14 in 10.0 mi East 8.1 mph - N/A   Clear
1:55 AM 66.2 °F 51.8 °F 60% 30.14 in 10.0 mi East 6.9 mph - N/A   Clear
2:15 AM 66.2 °F 51.8 °F 60% 30.14 in 10.0 mi East 8.1 mph - N/A   Clear
2:35 AM 66.2 °F 51.8 °F 60% 30.14 in 10.0 mi East 6.9 mph - N/A   Clear
2:55 AM 66.2 °F 51.8 °F 60% 30.15 in 10.0 mi ESE 6.9 mph - N/A   Clear
3:15 AM 64.4 °F 53.6 °F 68% 30.15 in 10.0 mi ESE 6.9 mph - N/A   Clear
3:35 AM 64.4 °F 53.6 °F 68% 30.15 in 10.0 mi SE 8.1 mph - N/A   Clear
3:55 AM 66.2 °F 53.6 °F 64% 30.15 in 10.0 mi ESE 10.4 mph - N/A   Clear
4:15 AM 66.2 °F 53.6 °F 64% 30.15 in 10.0 mi SE 10.4 mph 16.1 mph N/A   Partly Cloudy
4:35 AM 66.2 °F 53.6 °F 64% 30.15 in 10.0 mi SE 11.5 mph - N/A   Mostly Cloudy
4:55 AM 68.0 °F 53.6 °F 60% 30.15 in 10.0 mi SE 13.8 mph 19.6 mph N/A   Scattered Clouds
5:15 AM 66.2 °F 53.6 °F 64% 30.16 in 10.0 mi SE 12.7 mph 19.6 mph N/A   Clear
5:35 AM 66.2 °F 53.6 °F 64% 30.16 in 10.0 mi SE 10.4 mph - N/A   Mostly Cloudy
5:55 AM 66.2 °F 53.6 °F 64% 30.16 in 10.0 mi SE 10.4 mph - N/A   Scattered Clouds
6:35 AM 66.2 °F 53.6 °F 64% 30.15 in 10.0 mi SE 10.4 mph 17.3 mph N/A   Clear
7:15 AM 64.4 °F 53.6 °F 68% 30.15 in 10.0 mi ESE 10.4 mph - N/A   Clear
7:35 AM 66.2 °F 53.6 °F 64% 30.15 in 10.0 mi SE 11.5 mph 18.4 mph N/A   Clear
7:55 AM 66.2 °F 53.6 °F 64% 30.15 in 10.0 mi East 8.1 mph - N/A   Clear
8:15 AM 64.4 °F 53.6 °F 68% 30.16 in 10.0 mi East 10.4 mph - N/A   Clear
8:35 AM 66.2 °F 53.6 °F 64% 30.17 in 10.0 mi ESE 9.2 mph - N/A   Clear
8:55 AM 66.2 °F 55.4 °F 68% 30.17 in 10.0 mi ESE 9.2 mph - N/A   Clear
9:15 AM 69.8 °F 55.4 °F 60% 30.18 in 10.0 mi SE 8.1 mph - N/A   Clear
9:35 AM 71.6 °F 55.4 °F 57% 30.18 in 10.0 mi SE 15.0 mph 18.4 mph N/A   Clear
9:55 AM 71.6 °F 55.4 °F 57% 30.18 in 10.0 mi ESE 16.1 mph 20.7 mph N/A   Clear
10:15 AM 73.4 °F 55.4 °F 53% 30.18 in 10.0 mi SE 16.1 mph 23.0 mph N/A   Clear
10:35 AM 73.4 °F 57.2 °F 57% 30.18 in 10.0 mi SE 11.5 mph 23.0 mph N/A   Clear
10:55 AM 73.4 °F 57.2 °F 57% 30.18 in 10.0 mi SE 12.7 mph 20.7 mph N/A   Clear
11:15 AM 75.2 °F 57.2 °F 53% 30.17 in 10.0 mi SE 16.1 mph 23.0 mph N/A   Clear
11:35 AM 75.2 °F 57.2 °F 53% 30.16 in 10.0 mi SE 18.4 mph 23.0 mph N/A   Clear
11:55 AM 75.2 °F 57.2 °F 53% 30.16 in 10.0 mi SSE 13.8 mph 21.9 mph N/A   Clear
12:15 PM 75.2 °F 57.2 °F 53% 30.16 in 10.0 mi ESE 16.1 mph 21.9 mph N/A   Clear
12:35 PM 77.0 °F 57.2 °F 50% 30.15 in 10.0 mi SE 12.7 mph 23.0 mph N/A   Partly Cloudy
12:55 PM 78.8 °F 57.2 °F 47% 30.14 in 10.0 mi SE 17.3 mph 24.2 mph N/A   Partly Cloudy
1:15 PM 78.8 °F 55.4 °F 44% 30.13 in 10.0 mi SE 11.5 mph - N/A   Scattered Clouds
1:35 PM 78.8 °F 55.4 °F 44% 30.11 in 10.0 mi SE 15.0 mph 24.2 mph N/A   Scattered Clouds
1:55 PM 77.0 °F 55.4 °F 47% 30.10 in 10.0 mi ESE 15.0 mph 20.7 mph N/A   Mostly Cloudy
2:15 PM 77.0 °F 53.6 °F 44% 30.10 in 10.0 mi SE 15.0 mph - N/A   Mostly Cloudy
2:35 PM 78.8 °F 55.4 °F 44% 30.10 in 10.0 mi ESE 11.5 mph 17.3 mph N/A   Scattered Clouds
2:55 PM 77.0 °F 55.4 °F 47% 30.09 in 10.0 mi ESE 11.5 mph - N/A   Mostly Cloudy
3:15 PM 78.8 °F 53.6 °F 42% 30.09 in 10.0 mi SE 9.2 mph 19.6 mph N/A   Scattered Clouds
3:35 PM 75.2 °F 53.6 °F 47% 30.09 in 10.0 mi ESE 11.5 mph - N/A   Partly Cloudy
3:55 PM 77.0 °F 53.6 °F 44% 30.07 in 10.0 mi ESE 12.7 mph 17.3 mph N/A   Scattered Clouds
4:15 PM 77.0 °F 53.6 °F 44% 30.06 in 10.0 mi ESE 13.8 mph - N/A   Partly Cloudy
4:35 PM 75.2 °F 51.8 °F 44% 30.06 in 10.0 mi ESE 15.0 mph 18.4 mph N/A   Clear
4:55 PM 75.2 °F 51.8 °F 44% 30.06 in 10.0 mi ESE 10.4 mph - N/A   Clear
5:15 PM 75.2 °F 51.8 °F 44% 30.06 in 10.0 mi ESE 11.5 mph 16.1 mph N/A   Clear
5:35 PM 75.2 °F 51.8 °F 44% 30.07 in 10.0 mi ESE 10.4 mph - N/A   Clear
6:35 PM 73.4 °F 51.8 °F 47% 30.07 in 10.0 mi ESE 9.2 mph - N/A   Clear
6:55 PM 71.6 °F 50.0 °F 46% 30.07 in 10.0 mi ESE 8.1 mph - N/A   Clear
7:35 PM 69.8 °F 50.0 °F 49% 30.07 in 10.0 mi East 6.9 mph - N/A   Clear
7:55 PM 69.8 °F 51.8 °F 53% 30.07 in 10.0 mi East 6.9 mph - N/A   Clear
8:15 PM 69.8 °F 50.0 °F 49% 30.07 in 10.0 mi East 9.2 mph - N/A   Clear
8:35 PM 69.8 °F 51.8 °F 53% 30.07 in 10.0 mi East 5.8 mph - N/A   Clear
8:55 PM 68.0 °F 51.8 °F 56% 30.08 in 10.0 mi East 8.1 mph - N/A   Clear
9:15 PM 68.0 °F 51.8 °F 56% 30.08 in 10.0 mi East 6.9 mph - N/A   Clear
9:35 PM 66.2 °F 51.8 °F 60% 30.08 in 10.0 mi East 5.8 mph - N/A   Clear
9:55 PM 66.2 °F 51.8 °F 60% 30.08 in 10.0 mi East 6.9 mph - N/A   Clear
10:15 PM 66.2 °F 50.0 °F 56% 30.08 in 10.0 mi East 5.8 mph - N/A   Clear
10:35 PM 64.4 °F 50.0 °F 59% 30.08 in 10.0 mi East 5.8 mph - N/A   Clear
10:55 PM 64.4 °F 50.0 °F 59% 30.08 in 10.0 mi East 5.8 mph - N/A   Clear
11:15 PM 64.4 °F 50.0 °F 59% 30.07 in 10.0 mi East 4.6 mph - N/A   Clear
11:35 PM 64.4 °F 50.0 °F 59% 30.08 in 10.0 mi East 5.8 mph - N/A   Clear
11:55 PM 64.4 °F 50.0 °F 59% 30.07 in 10.0 mi East 5.8 mph - N/A   Clear